MDT,Max TemperatureF,Mean TemperatureF,Min TemperatureF,Max Dew PointF,MeanDew PointF,Min DewpointF,Max Humidity, Mean Humidity, Min Humidity, Max Sea Level PressureIn, Mean Sea Level PressureIn, Min Sea Level PressureIn, Max VisibilityMiles, Mean VisibilityMiles, Min VisibilityMiles, Max Wind SpeedMPH, Mean Wind SpeedMPH, Max Gust SpeedMPH,PrecipitationIn, CloudCover, Events, WindDirDegrees
2013-7-1,93,73,53,54,49,42,89,53,17,30.25,30.10,30.04,10,10,10,15,5,18,0.00,1,,116
2013-7-2,95,76,56,61,49,38,77,46,14,30.18,30.04,29.93,10,10,2,25,5,36,0.18,1,Rain-Thunderstorm,283
2013-7-3,89,73,56,60,49,43,84,53,22,30.14,29.96,29.88,10,9,1,22,7,29,0.00,0,,302
2013-7-4,86,68,50,46,41,33,74,47,19,29.94,29.85,29.76,10,10,10,17,5,22,0.00,0,,336
2013-7-5,83,69,54,53,43,36,67,44,21,29.97,29.81,29.68,10,10,6,30,5,41,0.07,3,Rain-Thunderstorm,85
2013-7-6,83,64,44,49,41,31,89,52,15,29.95,29.84,29.76,10,10,10,20,5,22,0.00,1,,122
2013-7-7,86,67,48,46,42,32,77,47,16,29.97,29.85,29.75,10,10,10,20,5,25,0.00,2,Thunderstorm,143
2013-7-8,79,63,47,50,44,35,86,57,28,30.06,29.91,29.85,10,10,10,23,7,31,0.01,1,Thunderstorm,333
2013-7-9,85,65,44,39,34,26,70,42,13,30.16,30.09,30.02,10,10,10,15,4,21,0.00,0,,50
2013-7-10,90,67,44,39,34,26,65,38,10,30.09,29.96,29.78,10,10,10,28,6,41,0.00,0,,172
2013-7-11,79,66,53,44,39,34,57,39,20,29.89,29.80,29.75,10,10,10,29,8,38,0.00,3,,203
2013-7-12,82,64,45,43,38,29,76,46,15,29.95,29.85,29.77,10,10,10,25,6,36,T,1,Rain,241
2013-7-13,79,61,42,41,36,30,83,51,19,30.06,29.98,29.87,10,10,10,17,6,23,0.00,0,,333
2013-7-14,83,65,46,46,34,25,66,39,12,30.11,30.04,29.93,10,10,10,21,5,29,0.00,0,,335
2013-7-15,89,67,44,43,32,26,62,37,11,30.00,29.92,29.83,10,10,10,22,8,31,0.00,0,,263
2013-7-16,81,64,47,57,46,41,93,61,28,30.15,30.05,29.94,10,10,5,25,8,32,0.29,2,Rain,166
2013-7-17,84,71,57,61,54,45,93,66,38,30.27,30.11,29.96,10,9,2,23,5,31,0.08,1,Rain-Thunderstorm,145
2013-7-18,84,68,51,52,41,28,96,55,14,30.17,30.11,30.05,10,10,10,14,4,18,0.00,1,,191
2013-7-19,86,66,46,41,35,28,71,42,13,30.12,30.04,29.96,10,10,10,18,6,26,0.00,0,,316
2013-7-20,87,66,45,37,31,21,70,40,10,30.01,29.93,29.82,10,10,10,14,4,18,0.00,0,,128
2013-7-21,88,65,42,34,29,20,70,40,9,29.92,29.86,29.80,10,10,10,13,5,17,0.00,0,,93
2013-7-22,86,64,42,33,25,12,58,33,7,29.96,29.89,29.87,10,10,10,23,7,30,0.00,0,,324
2013-7-23,88,66,43,33,27,18,58,34,9,30.09,30.03,29.99,10,10,10,15,4,18,0.00,0,,96
2013-7-24,91,70,49,40,30,22,56,33,9,30.04,29.97,29.91,10,10,10,16,5,21,0.00,0,,22
2013-7-25,88,69,49,46,39,32,77,46,14,30.10,30.04,29.98,10,10,10,17,5,23,0.00,0,,158
2013-7-26,90,70,49,43,35,26,71,41,10,30.12,30.05,29.99,10,10,10,22,7,30,T,2,,133
2013-7-27,83,66,49,42,37,31,61,40,18,30.02,29.93,29.83,10,10,10,18,6,24,0.00,2,,189
2013-7-28,80,64,47,41,33,27,60,38,16,29.95,29.83,29.76,10,10,6,26,6,37,0.01,2,Thunderstorm,43
2013-7-29,80,63,46,50,43,27,93,54,15,30.00,29.92,29.83,10,10,7,15,5,18,0.01,1,Rain-Thunderstorm,66
2013-7-30,76,62,47,46,41,33,80,52,23,30.25,30.10,29.99,10,10,5,22,5,28,0.06,2,Rain-Thunderstorm,319
2013-7-31,84,63,41,43,38,30,89,52,15,30.23,30.12,29.98,10,10,10,6,3,28,T,2,Rain,133